Lapse_Rate
6.1 6.1 6.2 6.1 6.4 6.5 6.3 6.3 6.3 6.2 6.1 5.7 5.8 5.9 5.8 5.4 5.4 5.8 6.2 6.9 6.8 7.0 7.0 7.4 7.6 7.4 7.3 7.4 7.1 6.9 6.9 7.4 7.2 6.3 6.9 7.0 7.4 7.6 7.6 7.7 7.8 7.7 7.6 7.7
6.2 6.4 6.4 6.2 6.5 6.7 6.6 6.4 6.1 6.2 5.8 5.7 6.0 5.8 5.6 5.5 5.2 5.4 6.2 6.3 6.1 6.2 6.7 6.8 7.0 7.4 7.2 7.4 7.4 7.3 7.4 6.7 7.0 7.1 6.9 6.6 6.6 6.9 7.2 7.4 7.5 7.6 7.8 7.8
6.1 6.5 6.4 6.5 7.6 7.3 7.1 6.5 5.9 6.5 6.0 6.0 5.9 5.7 5.5 5.4 5.5 5.2 5.8 5.8 6.2 6.0 6.8 6.9 6.9 7.1 6.9 6.9 7.2 7.2 7.2 7.3 7.1 7.1 7.2 7.5 7.7 7.5 7.5 7.6 7.4 7.5 7.7 7.8
5.5 6.2 6.1 7.1 7.7 7.6 6.8 6.6 6.7 6.7 6.5 6.3 6.3 5.7 5.8 5.5 5.8 6.0 5.8 5.6 5.5 6.0 6.4 6.6 6.8 7.0 7.0 6.9 6.8 6.8 7.0 7.0 7.3 7.2 7.2 7.4 7.4 7.5 7.7 7.6 7.4 7.4 7.5 7.6
6.2 6.2 6.3 7.2 7.6 7.6 7.7 7.4 7.6 7.2 6.6 6.8 6.5 6.6 6.1 6.0 6.1 6.3 5.9 6.3 7.0 7.1 6.5 6.5 6.3 6.2 6.6 7.0 7.3 7.1 6.8 6.7 6.8 6.9 7.0 7.1 7.2 7.4 7.5 7.3 7.3 7.5 7.3 7.2
6.7 6.3 5.8 7.4 7.7 7.6 7.5 7.5 7.6 7.2 6.9 6.5 6.7 7.0 5.9 5.9 6.3 6.7 6.9 7.0 7.3 7.2 7.0 7.1 6.9 6.7 6.6 6.7 6.6 6.6 6.8 6.9 6.8 6.7 6.6 6.8 7.0 7.0 7.3 7.4 7.3 7.4 7.5 7.3
6.8 6.7 6.6 7.6 7.8 8.0 7.0 6.8 7.0 7.4 7.2 6.9 6.8 7.2 7.5 6.7 6.4 6.7 6.9 6.7 7.1 7.1 6.9 6.9 6.9 6.9 6.8 6.8 6.8 6.8 6.8 6.8 6.7 6.8 6.9 6.8 6.5 6.5 6.8 7.1 7.3 7.4 7.2 7.1
6.8 6.8 6.5 7.6 7.8 7.7 7.3 7.2 7.1 7.2 7.1 7.1 6.8 6.9 6.8 6.7 6.7 6.6 6.6 6.8 6.9 7.0 6.8 6.6 6.4 6.5 6.5 6.6 6.8 6.9 7.0 7.0 7.1 7.2 7.2 7.1 7.1 7.0 6.6 6.6 6.8 7.0 6.9 6.8
7.3 7.3 7.2 7.2 7.2 7.2 7.0 7.0 7.2 6.9 7.0 6.6 6.8 6.4 6.1 6.2 6.4 6.7 6.6 6.6 6.6 6.8 6.7 6.4 6.4 6.5 6.5 6.6 6.8 7.0 7.1 7.1 7.2 7.2 7.2 7.2 7.1 7.1 7.1 7.0 6.9 6.8 6.5 6.3
7.1 7.0 7.2 7.3 7.0 6.7 7.0 6.9 6.8 6.9 6.7 6.7 6.7 6.4 6.2 6.5 6.7 7.2 7.2 7.0 6.7 6.8 6.8 6.8 6.8 7.0 7.2 7.3 7.3 7.3 7.3 7.2 7.1 7.1 7.0 6.9 6.8 6.6 6.5 6.8 6.7 6.7 6.8 6.3
6.9 6.9 7.0 7.0 6.9 6.6 6.2 6.7 6.4 5.6 6.0 6.1 6.6 7.0 7.3 7.0 6.9 7.1 7.1 7.2 7.2 7.2 7.2 7.2 7.2 7.2 7.2 7.3 7.2 7.2 7.2 7.3 7.3 7.1 6.9 6.6 6.4 6.3 6.2 6.0 6.2 6.0 6.0 6.3
6.3 6.5 6.7 6.9 6.7 6.5 6.1 5.8 5.6 6.1 6.4 6.8 6.9 6.9 6.9 7.0 7.0 7.0 7.1 7.2 7.3 7.4 7.3 7.3 7.2 7.2 7.2 7.2 7.2 7.2 7.2 7.2 7.1 6.7 6.2 6.1 6.1 6.0 5.9 5.7 5.7 5.6 5.9 6.0
6.7 6.7 6.5 6.5 6.2 6.3 6.2 6.2 6.2 6.4 6.6 7.0 7.0 7.0 7.0 7.2 7.1 7.0 7.0 7.1 7.2 7.2 7.1 7.0 7.0 6.9 6.9 6.9 6.9 6.9 6.9 6.8 6.4 6.3 6.2 6.1 6.1 6.0 6.0 6.0 5.8 5.4 5.1 5.4
6.9 6.9 6.8 6.7 6.7 6.6 6.4 6.3 6.6 6.5 6.6 6.8 6.9 6.9 7.0 7.1 7.2 7.2 7.1 7.1 7.1 7.0 7.0 6.8 6.8 6.6 6.5 6.4 6.4 6.1 5.8 5.7 5.7 5.9 5.9 6.0 6.1 6.2 6.1 6.1 6.2 5.8 5.4 5.0
6.8 6.7 6.6 6.6 6.5 6.4 6.6 6.7 6.7 6.7 6.8 6.8 6.8 6.8 6.8 6.8 6.9 6.8 6.7 6.6 6.6 6.6 6.6 6.5 6.3 6.2 6.0 5.8 5.7 5.6 5.5 5.3 5.2 5.3 5.2 5.5 5.4 5.2 5.3 5.2 5.5 5.4 5.0 4.7
6.3 6.5 6.6 6.6 6.4 6.1 6.1 6.2 6.2 6.3 6.4 6.4 6.4 6.4 6.4 6.5 6.5 6.5 6.3 6.3 6.2 6.1 6.1 5.9 5.6 5.4 5.3 5.2 5.1 5.0 4.9 4.8 4.8 4.9 5.0 4.9 4.6 4.7 4.8 4.6 4.5 4.6 4.6 4.3
6.4 6.3 6.0 6.5 6.6 6.4 6.3 6.2 6.1 6.1 6.2 6.2 6.1 6.1 6.2 6.2 6.2 6.1 5.8 5.6 5.4 5.3 5.2 5.1 4.9 4.7 4.7 4.6 4.5 4.4 4.6 4.7 4.9 4.8 4.7 4.8 4.5 4.3 4.5 4.4 4.2 4.1 4.0 4.0
6.6 6.6 6.6 6.5 6.4 6.4 6.4 6.3 6.2 6.1 6.0 6.0 5.9 5.8 5.6 5.4 5.2 5.1 5.0 4.9 4.8 4.7 4.6 4.5 4.5 4.4 4.5 4.6 4.6 4.7 4.7 4.7 4.6 4.7 4.4 4.4 4.5 4.3 4.3 4.2 4.2 4.0 3.8 3.7
6.9 6.9 6.8 6.7 6.6 6.5 6.4 6.3 6.2 6.0 5.8 5.6 5.5 5.4 5.3 5.2 5.0 4.9 4.9 4.9 4.9 4.8 4.5 4.5 4.6 4.7 4.7 4.8 4.8 4.8 4.8 4.8 4.8 4.8 4.8 4.5 4.5 4.6 4.4 4.3 4.2 4.2 4.0 3.8
6.4 6.3 6.1 6.0 5.9 6.1 6.1 6.0 5.9 5.7 5.4 5.2 5.0 4.8 4.7 4.6 4.5 4.5 4.5 4.5 4.5 4.4 4.4 4.5 4.6 4.5 4.6 4.8 4.9 4.8 4.7 4.5 4.5 4.6 4.6 4.5 4.5 4.3 4.3 4.1 4.0 3.9 3.8 3.8
5.9 5.8 5.7 5.6 5.4 5.3 5.3 5.2 5.1 4.9 4.8 4.6 4.4 4.2 4.1 4.1 4.2 4.3 4.3 4.3 4.5 4.6 4.6 4.4 4.5 4.7 4.8 4.8 4.8 4.7 4.5 4.4 4.4 4.3 4.5 4.4 4.3 4.3 4.1 4.0 4.0 4.0 3.9 3.8
5.1 5.0 5.0 4.8 4.7 4.7 4.6 4.5 4.4 4.3 4.1 4.1 4.0 3.9 4.0 4.1 4.2 4.3 4.5 4.5 4.4 4.4 4.5 4.6 4.7 4.8 4.8 4.8 4.7 4.7 4.6 4.5 4.4 4.2 4.3 4.3 4.3 4.2 4.1 4.0 3.8 3.7 3.7 3.6
4.5 4.4 4.4 4.3 4.4 4.3 4.2 4.2 4.1 4.1 4.0 4.1 4.2 4.3 4.4 4.5 4.5 4.5 4.4 4.3 4.4 4.6 4.8 4.8 4.9 4.9 4.8 4.7 4.7 4.6 4.5 4.4 4.3 4.4 4.3 4.2 4.1 4.0 4.0 3.9 3.7 3.6 3.6 3.6
4.5 4.5 4.5 4.4 4.3 4.3 4.3 4.3 4.2 4.1 4.1 4.2 4.4 4.4 4.5 4.6 4.5 4.5 4.6 4.8 4.9 5.0 4.9 4.9 4.8 4.7 4.8 4.8 4.7 4.6 4.6 4.5 4.4 4.4 4.3 4.2 4.1 4.2 4.1 3.9 3.8 3.9 3.8 3.6
4.3 4.3 4.3 4.2 4.2 4.2 4.1 4.1 4.1 4.2 4.4 4.6 4.7 4.9 4.9 4.8 4.8 4.8 4.9 5.0 5.1 5.0 4.9 4.8 4.8 4.8 4.8 4.7 4.6 4.7 4.7 4.6 4.5 4.4 4.4 4.3 4.3 4.3 4.3 4.4 4.6 4.6 4.6 4.7
4.4 4.4 4.3 4.2 4.1 4.1 4.1 4.4 4.5 4.5 4.5 4.7 4.9 5.0 5.2 5.3 5.4 5.4 5.3 5.1 4.9 4.9 5.1 5.1 5.0 4.9 4.9 4.9 4.8 4.6 4.6 4.7 4.8 4.8 4.9 5.0 5.0 5.0 5.1 5.2 5.1 5.0 5.0 4.9
4.2 4.1 4.1 4.0 4.1 4.2 4.5 4.6 4.8 5.0 5.3 5.3 5.3 5.3 5.5 5.5 5.5 5.4 5.3 5.3 5.3 5.2 5.1 5.1 5.2 5.3 5.3 5.3 5.4 5.4 5.4 5.4 5.5 5.5 5.6 5.5 5.4 5.4 5.3 5.3 5.2 5.0 4.9 4.8
Wind_Speed
5 7 8 11 12 8 8 10 5 6 7 4 3 8 9 12 10 12 16 17 17 15 13 13 13 12 10 9 9 3 6 11 14 14 14 14 15 16 15 16 16 16 16 16
5 6 10 10 16 9 10 5 4 6 5 5 4 8 8 8 12 12 15 15 16 14 15 15 13 11 11 12 13 10 9 3 5 8 10 13 14 16 16 17 18 16 18 17
4 4 7 5 12 13 10 8 10 7 6 11 6 5 8 10 5 11 14 16 15 15 13 12 11 11 12 12 11 12 12 11 10 11 5 12 12 13 17 18 15 18 18 18
4 5 4 5 18 12 14 8 16 7 7 19 15 7 5 8 13 13 15 14 12 10 12 12 10 11 10 11 13 13 13 12 13 11 10 9 9 11 16 14 16 16 18 19
3 3 7 18 6 5 3 1 12 11 16 19 15 18 15 14 14 14 13 12 11 10 10 9 12 11 11 12 12 13 14 14 14 13 13 11 11 11 12 13 14 16 17 17
2 3 3 7 9 7 9 2 12 9 15 11 13 10 7 10 13 15 13 11 11 12 11 12 13 11 12 14 15 16 15 14 13 13 13 13 12 11 10 11 14 13 16 17
4 4 6 9 13 11 4 3 5 12 11 14 11 8 12 12 15 14 13 15 13 13 12 12 12 11 13 13 14 13 13 12 13 13 12 13 12 10 9 9 10 10 11 5
4 4 9 11 9 4 4 9 10 11 12 15 15 14 13 13 13 14 12 12 13 11 12 12 12 11 12 13 13 12 10 11 11 12 11 11 12 11 11 9 8 8 8 8
5 5 6 10 11 9 7 9 8 10 9 11 13 12 12 11 11 11 11 10 10 10 11 11 11 11 11 12 11 10 11 11 10 12 14 13 12 13 10 10 7 7 6 7
2 7 12 13 15 15 11 11 11 11 10 11 12 12 10 9 10 10 10 10 9 11 10 11 10 11 10 11 9 9 9 10 9 10 11 14 10 11 10 9 8 7 6 7
3 8 10 13 13 12 13 12 15 13 14 10 11 12 12 11 10 9 9 9 10 10 10 11 10 11 11 10 9 8 8 8 7 7 9 10 14 13 11 14 13 7 7 6
1 7 7 7 8 10 9 12 13 11 10 14 13 11 11 10 9 9 9 9 9 10 10 12 12 12 13 11 10 8 9 7 7 6 7 6 7 10 28 28 30 28 21 11
4 8 9 7 12 11 11 11 12 12 10 12 12 11 11 10 10 11 10 11 12 12 11 11 12 13 11 12 10 11 9 8 7 8 7 7 7 7 8 14 30 35 31 28
6 5 9 10 7 10 13 12 14 11 11 11 10 10 10 10 10 11 11 10 11 11 12 11 11 11 11 10 10 11 10 14 8 7 6 7 7 7 7 8 10 9 20 23
12 12 11 9 11 10 8 8 9 8 9 10 9 10 10 10 10 10 9 10 9 11 12 11 12 12 11 10 11 11 8 7 7 7 7 8 7 8 8 9 9 8 8 10
6 9 8 10 9 8 7 7 8 8 9 9 10 10 11 11 11 11 11 11 11 10 10 10 11 11 10 9 8 8 8 12 9 7 6 7 7 7 8 8 9 9 9 8
3 7 4 7 7 7 7 6 7 7 7 7 8 8 8 9 10 10 9 8 8 9 9 10 10 10 9 9 7 5 5 7 8 7 7 7 7 7 7 7 8 8 8 10
8 8 8 7 7 7 8 8 7 8 7 8 8 8 8 8 8 7 6 6 8 10 11 10 10 10 10 9 8 6 6 6 7 7 6 7 7 6 6 7 7 7 7 8
8 7 8 9 8 9 8 8 8 7 7 7 8 8 7 7 6 5 4 7 8 9 9 10 12 10 10 12 9 7 7 7 7 7 7 8 7 7 7 6 7 7 7 6
8 8 9 10 10 9 7 6 7 7 6 7 7 7 7 6 5 5 6 9 7 4 7 9 8 9 9 10 9 6 7 7 7 7 6 6 6 6 6 8 6 6 5 5
6 6 7 8 7 7 6 5 6 7 7 7 8 7 6 6 5 3 5 5 6 7 8 10 8 6 6 7 7 6 6 6 6 5 6 5 6 6 6 5 5 5 4 4
3 5 5 5 7 7 6 6 6 6 6 6 6 6 6 6 6 7 5 5 4 7 6 6 6 9 7 8 6 6 6 6 5 4 4 4 4 5 4 4 3 3 3 3
4 4 5 5 6 6 6 6 6 6 6 5 4 5 5 4 3 3 4 5 4 5 5 4 6 8 8 5 5 5 5 5 4 3 3 4 3 3 3 3 2 2 3 3
3 4 4 4 5 5 6 4 6 6 5 6 5 3 5 3 2 3 4 4 4 4 3 4 5 7 6 3 4 4 4 4 3 3 3 4 2 2 3 3 3 2 2 3
3 3 3 4 4 3 5 6 6 6 6 6 6 5 5 2 2 0 2 1 3 4 2 4 5 6 3 3 3 3 3 2 2 3 3 2 2 3 2 2 2 2 1 1
3 2 3 5 3 1 3 4 3 4 4 3 2 2 2 1 2 2 2 3 2 2 1 1 2 2 3 3 2 2 2 1 2 2 2 2 2 2 2 2 1 0 1 3
2 3 4 4 3 3 4 4 3 2 3 3 3 1 2 2 2 3 3 2 2 1 1 2 1 2 1 1 1 1 2 1 1 0 0 1 2 3 3 3 3 3 3 4
Wind_Direction
245 253 269 285 266 236 243 246 245 327 291 358 303 185 266 305 300 71 74 73 67 55 50 47 42 34 23 19 17 213 200 211 217 218 213 214 217 210 204 204 210 212 210 214
270 277 286 255 285 193 227 281 268 295 286 254 154 127 225 252 321 84 79 65 66 66 49 41 33 32 19 22 20 22 10 261 222 232 236 229 224 215 215 219 217 211 216 214
279 303 308 284 251 208 189 192 228 210 225 164 143 189 191 206 142 81 72 62 53 51 48 46 28 23 24 20 20 30 24 15 19 14 307 239 234 225 224 223 222 224 221 219
282 317 252 244 323 288 207 237 213 231 142 137 114 17 63 87 93 75 74 70 62 57 46 33 24 30 31 26 25 26 21 16 8 358 349 342 332 250 235 228 223 222 228 226
210 211 306 307 287 358 311 330 336 186 136 137 126 86 55 61 70 79 74 71 62 55 51 37 29 22 32 34 34 27 15 8 0 353 342 339 340 327 316 249 231 225 226 225
158 212 247 248 333 301 301 49 353 87 148 134 107 105 88 72 68 63 69 63 57 47 41 35 24 25 36 27 19 18 11 6 4 0 348 343 332 324 327 315 268 239 234 227
208 236 278 286 330 320 230 141 48 66 72 88 86 82 97 79 66 59 53 48 47 45 39 26 14 15 30 24 20 2 3 8 11 11 1 353 337 335 327 334 328 285 248 47
175 201 257 350 318 350 121 87 82 75 77 81 91 89 85 75 65 57 48 42 42 44 36 24 15 15 21 18 356 1 11 16 15 13 8 4 0 352 346 353 12 20 39 38
167 187 77 47 73 57 74 83 76 74 74 100 104 88 77 75 64 56 54 50 42 43 40 26 20 23 18 357 352 10 19 26 23 26 22 18 15 10 4 356 17 32 52 53
124 109 86 68 56 49 38 67 58 53 78 74 82 82 82 70 56 47 39 43 43 44 40 29 19 22 15 1 358 32 31 30 30 37 37 36 33 31 28 20 13 28 46 62
85 73 87 70 58 38 25 55 62 51 48 59 79 65 62 51 47 44 39 40 43 43 39 32 27 28 21 15 14 47 46 39 40 43 44 48 50 42 44 43 43 34 29 54
84 312 69 50 61 70 45 51 44 53 47 46 54 66 73 66 53 49 45 38 45 42 40 33 28 29 25 19 27 41 50 43 37 42 42 36 51 58 51 48 47 49 47 51
5 87 79 79 46 46 85 71 62 57 52 57 47 61 66 70 64 60 53 50 45 42 34 31 31 26 19 17 24 42 46 47 49 47 48 43 36 37 54 46 54 45 45 49
69 125 68 47 57 63 77 76 76 71 60 69 71 71 70 75 65 57 46 39 41 38 34 27 30 29 15 19 31 45 49 44 45 40 31 42 39 40 41 46 55 46 39 44
38 59 85 83 68 62 76 89 87 82 82 79 74 77 73 66 58 49 38 44 45 44 35 30 29 24 15 21 37 43 46 48 48 52 46 41 44 46 51 47 52 54 41 38
57 49 80 81 78 63 60 72 92 91 83 85 88 83 82 77 66 56 43 32 41 33 26 24 26 13 16 17 29 38 44 46 50 54 52 51 46 52 53 50 51 48 46 33
74 51 63 94 86 80 75 73 84 87 85 83 89 88 81 77 68 55 43 34 38 33 18 24 18 13 17 17 19 31 43 50 57 58 54 61 60 55 61 66 62 57 50 42
69 59 50 97 115 110 98 91 90 89 89 93 86 78 71 67 70 61 43 29 35 38 23 7 26 22 28 26 32 30 35 47 51 59 56 58 65 62 60 63 64 65 58 48
58 70 71 76 86 92 94 91 86 84 81 88 88 81 77 70 65 53 32 47 42 37 12 6 24 33 32 34 38 36 44 45 48 51 56 56 56 58 58 60 61 58 60 55
70 75 81 79 77 89 86 80 87 80 77 86 87 83 84 85 70 56 53 53 36 25 13 15 27 36 37 34 38 45 47 51 55 55 53 56 56 50 53 52 55 61 61 65
67 67 69 75 73 66 70 75 90 85 82 81 89 84 79 63 52 50 56 53 16 16 23 28 33 37 39 39 43 45 46 52 55 52 55 56 64 60 53 49 49 46 45 53
73 79 71 72 82 76 63 71 76 82 93 106 112 113 108 98 84 70 45 59 36 25 30 34 40 38 41 40 43 47 49 50 49 51 55 51 58 69 60 50 51 41 66 56
93 99 94 86 92 91 84 79 75 75 73 73 83 82 83 79 81 99 78 41 55 43 46 34 34 46 46 43 47 47 42 43 41 53 70 67 63 70 67 61 52 49 67 78
107 108 119 122 120 114 110 106 113 119 116 96 78 111 120 103 41 76 109 94 74 58 35 62 50 47 42 46 55 56 53 45 36 35 40 59 79 81 69 62 58 48 73 82
127 138 154 169 160 154 164 175 159 130 116 105 99 91 89 95 135 174 91 112 118 84 50 32 54 54 61 54 67 67 63 63 42 61 68 102 108 91 81 84 111 134 145 184
107 92 81 74 70 114 191 179 144 130 126 114 81 80 67 47 61 64 57 77 117 148 86 10 37 48 44 53 90 135 136 97 84 65 97 105 142 136 145 146 120 162 217 227
86 128 107 82 64 65 67 80 94 112 139 137 137 195 136 118 104 105 96 61 56 80 153 289 340 18 1 18 359 274 239 236 217 200 185 166 178 176 187 202 232 250 255 252